Starlink 32580

operational
NORAD ID: 62075 Int'l Des: 2024-217 Owner: SPXS Country: US Constellation: starlink
LEOCIRCULAR

Über Starlink 32580

Beschreibung wird geladen...

Live-Position

3D-Globus wird geladen...

Nächste Überflüge

Höhenverlauf

Altitude vs Time

uPlot chart will show altitude changes over time

Zweizeiliger Elementsatz

1 62075U 24217U 25257.84589730 .00034397 00000-0 86537-3 0 9999
2 62075 53.1617 279.6803 0000439 241.0968 118.9993 15.39642561 46659
Epoch: 14. Sept. 2025 • Age: 28 hours

Aktueller Status

Höhe 453.2 km
Geschwindigkeit 7.65 km/s
Subsatellitenpunkt 50.59°N, 26.06°W
Startdatum 24. Nov. 2024
Alter 0.8 years
Typ internet

Technische Details

Klassifizierung Payload
Masse 730.00 kg
Trockenmasse 700.00 kg
Gesamtmasse 730.00 kg
Länge 0.30 m
Durchmesser 4.10 m
Spannweite 29.00 m
Form Box + pan
Hersteller SPXS
Bus-Typ Starlink V2M
Phasenstatus In Orbit
Besitzer/Staat SPXS/US

Große Konstellationen

Loading constellations...